Starlink 4386

operational
NORAD ID: 53649 Int'l Des: 2022-105 Owner: SPXS Country: US Constellation: starlink
LEOCIRCULARRETROGRADESSO

Über Starlink 4386

Beschreibung wird geladen...

Live-Position

3D-Globus wird geladen...

Nächste Überflüge

Höhenverlauf

Altitude vs Time

uPlot chart will show altitude changes over time

Zweizeiliger Elementsatz

1 53649U 22105B 25260.14703400 -.00000943 00000-0 -68859-4 0 9999
2 53649 97.6039 140.3217 0005150 85.4302 274.7510 15.01242209167190
Epoch: 17. Sept. 2025 • Age: 13 hours

Aktueller Status

Höhe 579.3 km
Geschwindigkeit 7.57 km/s
Subsatellitenpunkt -37.71°S, 92.48°W
Startdatum 31. Aug. 2022
Alter 3 years
Typ internet

Technische Details

Klassifizierung Payload
Masse 300.00 kg
Trockenmasse 290.00 kg
Gesamtmasse 300.00 kg
Länge 0.20 m
Durchmesser 2.80 m
Spannweite 9.00 m
Form Box + pan
Hersteller SPXS
Bus-Typ Starlink
Phasenstatus In Orbit
Besitzer/Staat SPXS/US

Große Konstellationen

Loading constellations...